HZA4 OEJN-HAAB

Flight info

Callsign HZA4
Flight time N/A
Altitude 37000
Route RIBAM G650 RASKA/N0451F360 UG650 ULONI/N0451F380 UG650 KONET/N0448F370 DCT EKBOB/N0448F380 UT114 MEKEL MEKEL2A
Aircraft A319/M-SDE3FGHIRWY/LB1

Departure

Time 2026-04-27 17:43
Airport King Abdulaziz International Airport (OEJN)

Arrival

Time N/A
Airport Addis Ababa Bole International Airport (HAAB)
Time Latitude Longitude Altitude Speed Heading
2026-04-27 17:25 21.68658 39.13722 29 ft 0 kts 249°
2026-04-27 17:28 21.68675 39.13775 29 ft 4 kts 257°
2026-04-27 17:29 21.68679 39.13803 28 ft 4 kts 272°
2026-04-27 17:29 21.68673 39.13827 28 ft 4 kts 321°
2026-04-27 17:29 21.68664 39.13833 29 ft 1 kts 338°
2026-04-27 17:29 21.68664 39.13834 29 ft 0 kts 338°
2026-04-27 17:32 21.68666 39.13832 28 ft 1 kts 338°
2026-04-27 17:32 21.68709 39.13813 28 ft 6 kts 337°
2026-04-27 17:32 21.68743 39.13758 28 ft 12 kts 277°
2026-04-27 17:33 21.68714 39.13650 28 ft 17 kts 229°
2026-04-27 17:33 21.68584 39.13666 29 ft 23 kts 158°
2026-04-27 17:33 21.68421 39.13732 30 ft 26 kts 158°
2026-04-27 17:33 21.68387 39.13740 30 ft 5 kts 171°
2026-04-27 17:34 21.68330 39.13729 30 ft 12 kts 211°
2026-04-27 17:34 21.68238 39.13716 31 ft 18 kts 159°
2026-04-27 17:34 21.68105 39.13771 32 ft 23 kts 161°
2026-04-27 17:34 21.67930 39.13831 32 ft 29 kts 155°
2026-04-27 17:35 21.67721 39.13916 34 ft 35 kts 161°
2026-04-27 17:35 21.67478 39.14014 35 ft 38 kts 159°
2026-04-27 17:35 21.67341 39.14067 34 ft 17 kts 161°
2026-04-27 17:35 21.67228 39.14110 35 ft 17 kts 158°
2026-04-27 17:36 21.67126 39.14107 34 ft 16 kts 237°
2026-04-27 17:36 21.67119 39.14090 36 ft 0 kts 248°
2026-04-27 17:37 21.67119 39.14089 36 ft 0 kts 248°
2026-04-27 17:38 21.67113 39.14074 33 ft 3 kts 248°
2026-04-27 17:38 21.67103 39.14048 35 ft 4 kts 250°
2026-04-27 17:38 21.67098 39.14031 34 ft 0 kts 251°
2026-04-27 17:38 21.67097 39.14030 34 ft 0 kts 251°
2026-04-27 17:39 21.67097 39.14029 34 ft 0 kts 251°
2026-04-27 17:41 21.67097 39.14027 34 ft 1 kts 251°
2026-04-27 17:41 21.67086 39.13985 33 ft 10 kts 260°
2026-04-27 17:41 21.67122 39.13928 34 ft 8 kts 338°
2026-04-27 17:41 21.67123 39.13927 35 ft 0 kts 338°
2026-04-27 17:42 21.67254 39.13873 35 ft 54 kts 340°
2026-04-27 17:43 21.67582 39.13748 37 ft 96 kts 340°
2026-04-27 17:43 21.68393 39.13429 30 ft 149 kts 340°
2026-04-27 17:43 21.69410 39.13030 472 ft 156 kts 340°
2026-04-27 17:43 21.70433 39.12607 1009 ft 159 kts 336°
2026-04-27 17:44 21.71412 39.12046 1608 ft 159 kts 334°
2026-04-27 17:44 21.72410 39.11423 1987 ft 175 kts 332°
2026-04-27 17:44 21.73531 39.10712 2219 ft 199 kts 330°
2026-04-27 17:44 21.74749 39.09934 2812 ft 206 kts 330°
2026-04-27 17:45 21.76008 39.09129 3422 ft 213 kts 330°
2026-04-27 17:45 21.77286 39.08298 4078 ft 220 kts 326°
2026-04-27 17:45 21.78427 39.07083 4373 ft 244 kts 304°
2026-04-27 17:45 21.79128 39.05340 4702 ft 266 kts 279°
2026-04-27 17:46 21.79031 39.03327 5307 ft 275 kts 252°
2026-04-27 17:46 21.78034 39.01584 6108 ft 277 kts 223°
2026-04-27 17:46 21.76356 39.00591 6925 ft 279 kts 194°
2026-04-27 17:46 21.74404 39.00522 7707 ft 284 kts 178°
2026-04-27 17:47 21.72432 39.00699 8532 ft 285 kts 178°
2026-04-27 17:47 21.71116 39.00824 9076 ft 286 kts 178°
2026-04-27 17:47 21.68468 39.01078 10106 ft 290 kts 178°
2026-04-27 17:47 21.66387 39.01272 10429 ft 311 kts 178°
2026-04-27 17:48 21.64150 39.01475 10609 ft 334 kts 178°
2026-04-27 17:48 21.61753 39.01690 10845 ft 352 kts 178°
2026-04-27 17:48 21.59290 39.01914 11408 ft 358 kts 178°
2026-04-27 17:48 21.56819 39.02136 12055 ft 361 kts 178°
2026-04-27 17:49 21.54308 39.02360 12734 ft 363 kts 178°
2026-04-27 17:49 21.51776 39.02583 13425 ft 365 kts 178°
2026-04-27 17:49 21.49229 39.02807 14045 ft 368 kts 179°
2026-04-27 17:49 21.46657 39.03033 14598 ft 371 kts 179°
2026-04-27 17:50 21.44095 39.03263 15136 ft 375 kts 179°
2026-04-27 17:50 21.38843 39.03733 16253 ft 381 kts 179°
2026-04-27 17:50 21.36218 39.03965 16829 ft 383 kts 180°
2026-04-27 17:51 21.33545 39.04200 17383 ft 386 kts 180°
2026-04-27 17:51 21.30845 39.04438 17930 ft 389 kts 180°
2026-04-27 17:51 21.28122 39.04679 18444 ft 392 kts 180°
2026-04-27 17:51 21.25395 39.04922 18929 ft 395 kts 180°
2026-04-27 17:52 21.22677 39.05165 19416 ft 397 kts 181°
2026-04-27 17:52 21.19918 39.05413 19874 ft 399 kts 180°
2026-04-27 17:52 21.17145 39.05663 20333 ft 401 kts 180°
2026-04-27 17:52 21.14355 39.05912 20785 ft 402 kts 181°
2026-04-27 17:53 21.11552 39.06161 21236 ft 404 kts 181°
2026-04-27 17:53 21.08772 39.06407 21661 ft 406 kts 181°
2026-04-27 17:53 21.05944 39.06656 22083 ft 408 kts 181°
2026-04-27 17:53 21.03104 39.06907 22504 ft 410 kts 181°
2026-04-27 17:54 21.00250 39.07161 22917 ft 412 kts 181°
2026-04-27 17:54 20.97376 39.07419 23314 ft 414 kts 181°
2026-04-27 17:54 20.94534 39.07671 23628 ft 416 kts 181°
2026-04-27 17:54 20.91639 39.07923 23897 ft 419 kts 181°
2026-04-27 17:55 20.88721 39.08176 24161 ft 422 kts 181°
2026-04-27 17:55 20.85784 39.08434 24431 ft 425 kts 181°
2026-04-27 17:55 20.82815 39.08696 24695 ft 428 kts 181°
2026-04-27 17:55 20.79832 39.08960 24956 ft 431 kts 181°
2026-04-27 17:56 20.76827 39.09225 25213 ft 434 kts 181°
2026-04-27 17:56 20.73834 39.09489 25465 ft 436 kts 181°
2026-04-27 17:56 20.70798 39.09728 25707 ft 437 kts 185°
2026-04-27 17:56 20.67754 39.09679 25940 ft 437 kts 187°
2026-04-27 17:57 20.64689 39.09598 26176 ft 440 kts 187°
2026-04-27 17:57 20.61614 39.09519 26415 ft 443 kts 187°
2026-04-27 17:57 20.58531 39.09441 26654 ft 445 kts 187°
2026-04-27 17:57 20.55447 39.09365 26887 ft 448 kts 187°
2026-04-27 17:58 20.52327 39.09286 27115 ft 450 kts 187°
2026-04-27 17:58 20.49190 39.09209 27338 ft 452 kts 187°
2026-04-27 17:58 20.46016 39.09130 27560 ft 455 kts 187°
2026-04-27 17:58 20.42841 39.09049 27766 ft 457 kts 187°
2026-04-27 17:59 20.39653 39.08967 27967 ft 460 kts 187°
2026-04-27 17:59 20.36449 39.08885 28166 ft 462 kts 187°
2026-04-27 17:59 20.33257 39.08805 28364 ft 465 kts 187°
2026-04-27 17:59 20.30014 39.08725 28564 ft 467 kts 187°
2026-04-27 18:00 20.26752 39.08645 28761 ft 469 kts 187°
2026-04-27 18:00 20.23466 39.08565 28961 ft 471 kts 187°
2026-04-27 18:00 20.20228 39.08487 29218 ft 471 kts 187°
2026-04-27 18:00 20.16911 39.08405 29488 ft 471 kts 187°
2026-04-27 18:01 20.13665 39.08324 29770 ft 472 kts 187°
2026-04-27 18:01 20.10377 39.08241 30029 ft 472 kts 187°
2026-04-27 18:01 20.07106 39.08158 30265 ft 472 kts 187°
2026-04-27 18:01 20.03806 39.08073 30514 ft 472 kts 187°
2026-04-27 18:02 20.00524 39.07991 30763 ft 472 kts 187°
2026-04-27 18:02 19.97220 39.07910 31020 ft 472 kts 187°
2026-04-27 18:02 19.93941 39.07829 31276 ft 471 kts 187°
2026-04-27 18:02 19.90697 39.07749 31525 ft 471 kts 187°